Regional Weather Roundup
Issued by NWS

Home | Current Version | Previous Version | Graphics & Text | Print | Product List | Glossary On
Versions: 1 2 3 4 5 6 7 8 9 10 11 12 13 14 15 16 17 18 19 20 21 22 23 24 25 26 27 28 29 30 31 32 33 34 35 36 37 38 39 40 41 42 43 44 45 46 47 48 49 50
632
ASUS43 KMPX 130110
RWRMN
WEATHER ROUNDUP FOR MINNESOTA
NATIONAL WEATHER SERVICE TWIN CITIES/CHANHASSEN MN
700 PM CST FRI FEB 12 2016


NOTE: "FAIR" INDICATES FEW OR NO CLOUDS BELOW 12,000 FEET WITH NO
SIGNIFICANT WEATHER AND/OR OBSTRUCTIONS TO VISIBILITY. N/A MEANS
CURRENT SKY AND/OR WEATHER CONDITIONS ARE NOT AVAILABLE.

MNZ060>063-068>070-130200-
   Twin Cities Metro

CITY           SKY/WX    TMP DP  RH WIND       PRES   REMARKS
TWIN CITIES    CLEAR      6 -11  45 NW12      30.54S WCI  -9
ST PAUL        PTCLDY     6 -11  45 NW14      30.56R WCI -11
CRYSTAL        CLEAR      6 -11  45 NW9       30.54R WCI  -8
BLAINE         CLEAR      7  -9  47 NW9       30.53R WCI  -7
LAKEVILLE      CLEAR      3  -9  55 NW9       30.53R WCI -11
EDEN PRAIRIE   CLEAR      6 -10  47 NW9       30.54R WCI  -8
SOUTH ST PAUL  PTCLDY     7 -13  39 NW9       30.54S WCI  -6
LAKE ELMO      FAIR       5 -13  43 NW8       30.53S WCI  -8
$$
MNZ001>005-007-008-013>017-022>024-027-028-130200-
   Northwest Minnesota

CITY           SKY/WX    TMP DP  RH WIND       PRES   REMARKS
BEMIDJI        PTCLDY    -9 -16  71 NW9       30.55R WCI -26
HALLOCK        CLOUDY    -8 -15  71 N6        30.67S WCI -21
ROSEAU         CLOUDY    -9 -17  70 W7        30.60F WCI -24
WARROAD        CLOUDY    -9 -18  64 W7        30.59S WCI -24
THIEF RVR FALL PTCLDY    -8 -17  65 NW7       30.63R WCI -22
CROOKSTON      CLOUDY    -6 -11  77 N7        30.68S WCI -20
FOSSTON          N/A    -11 -17  77 NW6       30.61R WCI -25
DETROIT LAKES  CLOUDY    -6 -11  77 NW10      30.60S WCI -23
MOORHEAD       CLOUDY    -2  -9  71 N8        30.68S WCI -17
PARK RAPIDS    PTCLDY    -7 -16  65 NW10      30.53R WCI -25
MAHNOMEN       FAIR     -11 -17  77 NW8       30.61R WCI -28
$$
MNZ006-009>011-018-025>026-130200-
   North Central Minnesota

CITY           SKY/WX    TMP DP  RH WIND       PRES   REMARKS
BAUDETTE       CLOUDY    -8 -20  55 NW13      30.54F WCI -28
FLAG ISLAND    CLOUDY   -11 -18  70 NW6       30.58S WCI -25
INTL FALLS     PTCLDY    -8 -19  58 NW9       30.52R WCI -25
WASKISH        CLOUDY    -8 -17  65 W8        30.56R WCI -23
LONGVILLE      PTCLDY    -6 -17  59 NW6       30.52S WCI -18
GRAND RAPIDS   CLEAR     -4 -17  54 NW10      30.48S WCI -21
CRANE LAKE     PTCLDY    -8 -18  59 NW3       30.51R
ORR            CLEAR     -8 -20  54 NW9       30.45S WCI -25
COOK           PTCLDY    -8 -18  59 NW8       30.48R WCI -23
WALKER         FAIR      -7 -16  65 NW9       30.54R WCI -24
$$
MNZ012-019>021-037-130200-
   Northeast Minnesota

CITY           SKY/WX    TMP DP  RH WIND       PRES   REMARKS
DULUTH         CLEAR     -2 -18  46 NW12      30.42R WCI -20
ELY            CLEAR     -8 -17  65 NW10G16   30.42R WCI -26
HIBBING        PTCLDY    -7 -18  59 NW14      30.46R WCI -28
EVELETH        CLEAR     -2 -18  46 NW12G21   30.46R WCI -20
DULUTH HARBOR  CLEAR      3 -15  43 NW17      30.53R WCI -17
TWO HARBORS    CLEAR      1 -15  46 NW8       30.42R WCI -12
SILVER BAY     CLEAR     -2 -18  46 NW8       30.40R WCI -17
GRAND MARAIS     N/A     -1 -13  56 VRB6      30.42F WCI -13
G MARAIS ARPRT CLEAR     -9 -18  64 W8G17     30.26S WCI -26
$$
MNZ029>031-032-039>041-046>048-054>057-064-130200-
   West Central Minnesota

CITY           SKY/WX    TMP DP  RH WIND       PRES   REMARKS
FERGUS FALLS   PTCLDY    -2 -11  65 N12       30.67S WCI -20
WHEATON        CLOUDY    -2  -9  71 NW6       30.68R WCI -14
MORRIS         PTCLDY     0  -8  71 NW13      30.62R WCI -18
ALEXANDRIA     CLOUDY    -3 -14  59 NW10      30.57R WCI -20
ELBOW LAKE     FAIR      -2  -8  74 NW13      30.62S WCI -20
WADENA         CLOUDY    -8 -15  71 NW13G20   30.57R WCI -28
GLENWOOD       CLOUDY    -2 -11  65 NW14      30.58R WCI -21
APPLETON       PTCLDY     1  -6  71 NW12      30.64S WCI -15
BENSON         PTCLDY     0  -8  71 N9        30.62R WCI -16
ORTONVILLE     CLOUDY    -2  -9  71 NW8       30.64S WCI -17
MADISON        CLOUDY     1  -6  71 NW10      30.64S WCI -14
WILLMAR        FAIR       3  -6  66 NW16      30.60R WCI -16
$$
MNZ033>034-036-042>043-049>051-058-059-130200-
   Central Minnesota

CITY           SKY/WX    TMP DP  RH WIND       PRES   REMARKS
ST CLOUD       PTCLDY     2 -10  57 NW13      30.55R WCI -15
SAUK CENTRE    FAIR      -1 -12  60 NW14      30.57S WCI -20
PAYNESVILLE    CLEAR      1 -11  57 NW8       30.57R WCI -13
AITKIN         CLEAR      1 -18  39 NW8       30.50S WCI -12
PINE RIVER     PTCLDY    -2 -15  55 NW7       30.55R WCI -16
BRAINERD       PTCLDY     0 -16  46 NW13      30.53R WCI -18
STAPLES        CLOUDY    -6 -15  65 W12       30.56R WCI -24
LONG PRAIRIE   FAIR      -2 -13  60 W9        30.56R WCI -18
LITTLE FALLS   PTCLDY     1 -13  51 W10       30.56R WCI -14
LITCHFIELD     PTCLDY     3  -9  55 NW12      30.57R WCI -13
BUFFALO        PTCLDY     4 -10  52 W7        30.57R WCI  -9
MAPLE LAKE     CLEAR      4  -8  58 W7        30.56R WCI  -8
$$
MNZ037-044-045-052-053-130200-
   East Central Minnesota

CITY           SKY/WX    TMP DP  RH WIND       PRES   REMARKS
PRINCETON      PTCLDY     3 -11  51 NW8       30.53S WCI -10
MORA           CLEAR      1 -13  51 NW3       30.53S
CAMBRIDGE      PTCLDY     3  -9  55 CALM      30.52R
RUSH CITY      MOCLDY     2 -14  46 NW6       30.53S WCI  -9
MOOSE LAKE     CLEAR      0 -17  46 NW7       30.49R WCI -13
HINCKLEY       FAIR       3 -13  47 NW6       30.51R WCI  -8
CLOQUET        CLEAR     -2 -18  46 W9        30.45R WCI -18
MCGREGOR       CLEAR      0 -15  50 NW7       30.50R WCI -13
$$
MNZ071>073-080-081-089-090-097-098-130200-
   Southwest Minnesota

CITY           SKY/WX    TMP DP  RH WIND       PRES   REMARKS
MONTEVIDEO     PTCLDY     0  -6  78 N9        30.64S WCI -16
GRANITE FALLS  PTCLDY     4  -2  77 NW10      30.64R WCI -12
CANBY          CLOUDY     3  -4  72 NW9       30.64R WCI -12
MARSHALL       CLOUDY     0  -5  79 NW12      30.62R WCI -17
REDWOOD FALLS  PTCLDY     3  -5  69 NW14G21   30.60R WCI -15
OLIVIA         CLEAR      5  -6  61 NW14      30.59S WCI -12
PIPESTONE      CLOUDY     1 -11  55 N7        30.56S WCI -11
WINDOM         CLOUDY     0  -6  78 NW15      30.56S WCI -20
WORTHINGTON    CLOUDY     0  -9  65 N10       30.56S WCI -17
JACKSON        CLOUDY     3  -4  72 NW16      30.56R WCI -16
TRACY          CLOUDY     2  -4  75 NW13      30.60S WCI -15
SLAYTON        CLOUDY    -1  -6  79 NW10      30.57R WCI -17
$$
MNZ065>067-074>077-082>085-091>093-130200-
   South Central Minnesota

CITY           SKY/WX    TMP DP  RH WIND       PRES   REMARKS
MANKATO        CLEAR      5  -8  56 NW13      30.56R WCI -12
NEW ULM        CLEAR      3  -8  60 NW12      30.58R WCI -13
ST JAMES       CLOUDY     3  -2  78 NW15      30.59R WCI -15
FAIRMONT       CLOUDY     3  -4  72 NW16      30.55R WCI -16
GLENCOE        CLEAR      5  -4  64 W9        30.57R WCI  -9
FARIBAULT      CLEAR      3  -9  55 W7        30.53R WCI  -9
OWATONNA       CLEAR      3  -8  60 NW10      30.52R WCI -12
WASECA         CLEAR      5  -6  61 NW10      30.55R WCI -10
ALBERT LEA     CLEAR      5  -6  61 NW7       30.52R WCI  -7
$$
MNZ078>079-086>088-094>096-130200-
   Southeast Minnesota

CITY           SKY/WX    TMP DP  RH WIND       PRES   REMARKS
ROCHESTER      CLEAR      2 -10  57 NW10      30.47R WCI -14
RED WING       PTCLDY     7 -17  33 NW9       30.52R WCI  -7
STANTON        CLEAR      6  -9  50 NW12      30.52R WCI -10
DODGE CENTER   PTCLDY     1  -9  60 NW12      30.48R WCI -15
WINONA         PTCLDY    10  -6  48 NW13      30.53R WCI  -5
AUSTIN         CLOUDY     3  -6  66 NW8       30.50R WCI -10
PRESTON        CLEAR      3 -10  55 NW9       30.47R WCI -12
$$
ABBREVIATIONS USED IN REMARKS
   TC - TEMPERATURES IN CELSIUS
  WCI - WIND CHILL INDEX
   HX - HEAT INDEX
  VSB - VISIBILITY
$$




USA.gov is the U.S. government's official web portal to all federal, state and local government web resources and services.